Location: Gwatt
(46.7204°N, 7.6223°E)
Time: 21:38:54
(UTC+00:00)

Vanguard 3 - Visible Passes

Search period start: 21 January 2021 00:00
Search period end: 31 January 2021 00:00
Orbit: 508 x 3262 km, 33.3° (Epoch: 21 January)

Date Brightness Start Highest point End Pass type
(mag) Time Alt. Az. Time Alt. Az. Time Alt. Az.
21 Jan 9.6 03:35:27 24° S 03:38:10 28° SSE 03:48:11 10° E visible
21 Jan 10.0 05:40:49 10° WSW 05:50:04 44° S 06:05:06 10° ESE visible
22 Jan 10.2 02:25:41 16° SE 02:25:41 16° SE 02:30:10 10° ESE visible
22 Jan 9.5 04:30:15 22° SW 04:35:22 38° SSE 04:47:47 10° ESE visible
23 Jan 9.5 03:20:26 27° SSE 03:21:19 27° SSE 03:30:27 10° ESE visible
23 Jan 9.8 05:25:00 12° WSW 05:33:03 42° S 05:46:58 10° ESE visible
24 Jan 10.3 02:10:35 14° ESE 02:10:35 14° ESE 02:12:50 10° ESE visible
24 Jan 9.2 04:15:09 27° SSW 04:18:33 36° SSE 04:29:51 10° ESE visible
24 Jan 10.0 06:21:53 10° WSW 06:31:02 40° S 06:45:35 10° SE visible
25 Jan 9.5 03:05:17 26° SSE 03:05:17 26° SSE 03:12:48 10° ESE visible
25 Jan 9.5 05:09:51 16° WSW 05:16:10 39° S 05:28:49 10° ESE visible
26 Jan 10.4 01:55:25 10° ESE 01:55:25 10° ESE 01:55:35 10° ESE visible
26 Jan 9.0 03:59:58 31° SSW 04:01:50 34° SSE 04:11:58 10° ESE visible
26 Jan 9.9 06:05:49 10° WSW 06:14:05 35° S 06:27:12 10° SE visible
27 Jan 9.7 02:50:05 23° SE 02:50:05 23° SE 02:55:14 10° ESE visible
27 Jan 9.3 04:54:39 20° SW 04:59:25 35° S 05:10:42 10° ESE visible
28 Jan 9.0 03:44:46 31° S 03:45:13 31° S 03:54:10 10° ESE visible
28 Jan 9.8 05:49:52 10° WSW 05:57:15 31° S 06:08:46 10° SE visible
29 Jan 9.9 02:34:52 18° SE 02:34:52 18° SE 02:37:48 10° ESE visible
29 Jan 9.1 04:39:26 23° SW 04:42:45 31° S 04:52:37 10° SE visible
30 Jan 9.2 03:29:33 28° SSE 03:29:33 28° SSE 03:36:26 10° ESE visible
30 Jan 9.7 05:34:07 10° WSW 05:40:31 26° SSW 05:50:18 10° SE visible
